Location: Unspecified
(33.4390°N, 83.7350°W)
Time: 16:09:34
(UTC-05:00)

Daily predictions for brighter satellites

Satellite Brightness Start Highest point End
(mag) Time Altitude Azimuth Time Altitude Azimuth Time Altitude Azimuth
Meteor 2-12 Rocket 4.5 17:45:32 10° S 17:51:33 65° E 17:57:33 10° NNE
Cosmos 1570 Rocket 4.0 17:47:20 10° NNW 17:52:42 75° ENE 17:58:00 10° SSE
Meteor 2-10 Rocket 4.1 17:50:43 10° SSW 17:55:46 62° W 18:01:03 10° N
Cosmos 1867 4.3 17:51:42 10° NW 17:57:05 62° WSW 18:02:24 10° SSE
USA 116 4.1 17:54:38 10° NNE 17:59:01 52° E 18:02:52 10° S
BREEZE-M DEB (TANK) 3.9 17:46:56 10° NW 18:02:07 86° SW 18:06:06 10° SE
COSMOS 2406 3.3 17:57:03 10° NNW 18:02:43 59° ENE 18:08:19 10° SSE
MTI 4.5 18:00:56 10° NNE 18:03:53 33° E 18:06:50 10° SSE
CZ-4 R/B 1.5 18:00:32 10° SSE 18:04:17 47° ENE 18:08:00 10° N
Cosmos 1844 Rocket 3.6 18:00:17 10° SW 18:05:45 50° WNW 18:11:13 10° N
ERS-2 3.1 18:04:15 10° SE 18:07:20 26° ENE 18:10:25 10° NNE
Lacrosse 5 4.3 18:07:40 10° NW 18:09:11 11° NNW 18:10:42 10° NNW
Meteor 1-26 Rocket 4.2 18:09:06 10° S 18:14:43 78° E 18:20:16 10° N
AQUARIUS 4.2 18:10:57 10° SSE 18:15:26 89° WSW 18:19:57 10° NNW
Cosmos 2233 Rocket 4.0 18:16:05 10° S 18:22:21 83° E 18:28:36 10° N
CENTAUR R/B 3.8 18:19:13 10° WSW 18:24:42 37° NW 18:30:51 10° NNE
Cosmos 2297 4.5 18:21:54 10° SSE 18:26:49 31° ESE 18:30:54 14° NE
TSX-5 4.5 18:23:27 10° NNW 18:27:01 58° WSW 18:31:24 10° S
Cosmos 468 Rocket 3.9 18:22:38 10° NNW 18:27:50 84° ENE 18:32:57 10° SSE
FENGYUN 3A 4.2 18:26:01 10° SE 18:30:49 33° ENE 18:35:37 10° N
Cosmos 1437 4.3 18:28:06 10° SSW 18:31:03 36° W 18:34:02 10° N
SKYMED 2 3.5 18:29:09 10° NNE 18:33:29 73° ESE 18:37:48 10° S
ERBS 3.6 18:30:58 10° N 18:33:41 22° NE 18:33:53 22° NE
Cosmos 2278 Rocket 2.3 18:29:12 10° SSW 18:34:52 83° WNW 18:40:34 10° NNE
Cosmos 1908 Rocket 3.6 18:30:39 10° N 18:34:52 51° E 18:39:04 10° SSE
Cosmos 1833 Rocket 3.9 18:33:06 10° NNE 18:37:08 20° ENE 18:37:29 20° ENE
Cosmos 972 Rocket 4.0 18:32:35 10° NNW 18:37:29 77° WSW 18:42:25 10° S
Sich 1 Rocket 3.8 18:33:17 10° N 18:37:32 44° E 18:41:47 10° SSE
Cosmos 1733 Rocket 4.0 18:34:50 10° NNW 18:39:08 51° W 18:43:25 10° SSW
OAO 3 Copernicus 4.3 18:34:15 10° W 18:39:20 75° N 18:42:23 24° ENE
MONITOR-E 4.2 18:36:54 10° SSE 18:39:51 49° ENE 18:42:49 10° N
Cosmos 304 Rocket 3.6 18:43:58 10° NNW 18:48:46 70° ENE 18:53:31 10° SSE
Cosmos 1763 Rocket 3.3 18:46:08 10° NNW 18:51:21 79° ENE 18:56:28 10° SSE
Cosmos 1782 2.7 18:49:51 10° S 18:53:53 83° E 18:57:55 10° N
Cosmos 1606 2.6 18:50:56 10° S 18:54:43 89° E 18:58:16 12° N
Cosmos 972 4.2 18:51:01 10° NNW 18:56:01 77° ENE 19:00:52 10° SSE
Meteor 2-6 Rocket 4.1 18:51:20 10° S 18:56:36 60° E 19:02:00 10° NNE
Cosmos 1503 Rocket 3.9 18:52:09 10° S 18:57:23 65° ESE 19:01:05 19° NNE
Cosmos 1814 Rocket 4.1 18:52:06 10° NNW 18:57:28 80° WSW 19:02:48 10° SSE
EO 1 Del DPAF 4.1 18:54:41 10° N 18:58:23 49° WNW 19:02:04 10° SSW
Cosmos 1633 2.5 18:56:03 10° N 18:59:41 60° E 19:03:18 10° SSE
Cosmos 1891 Rocket 4.5 18:54:16 10° S 19:00:21 59° E 19:06:21 10° NNE
Meteor 1-25 Rocket 4.4 18:57:39 10° N 19:03:31 79° W 19:09:17 10° S
OAO 3 Rocket 4.3 19:05:16 10° SSW 19:09:34 30° SSE 19:10:13 29° SE
BREEZE-M R/B 4.1 19:07:35 10° NNW 19:09:25 26° N 19:09:25 26° N
Meteor 1-20 Rocket 4.3 19:05:08 10° NNW 19:10:40 74° W 19:16:07 10° S
Okean 1-7 3.1 19:06:27 10° S 19:10:47 77° W 19:14:49 12° N
BREEZE-M DEB (TANK) 2.6 19:06:07 10° WNW 19:12:01 69° SW 19:12:53 46° SSE
Cosmos 1072 Rocket 4.5 19:06:34 10° S 19:12:43 83° W 19:19:01 10° N
FengYun 1-2 T 4.4 19:07:37 10° SE 19:12:48 45° ENE 19:18:02 10° N
ALOS 2.3 19:10:37 10° S 19:15:17 82° W 19:19:59 10° NNW
Meteor 1-27 Rocket 3.8 19:11:49 10° S 19:17:32 58° E 19:20:06 33° NNE
Cosmos 2034 Rocket 3.9 19:12:31 10° S 19:18:51 72° E 19:25:12 10° N
Cosmos 2082 Rocket 2.6 19:13:34 10° N 19:18:10 41° NE 19:18:10 41° NE
Cosmos 1782 Rocket 3.5 19:14:38 10° N 19:18:59 84° W 19:23:20 10° S
COSMO-SKYMED 1 4.5 19:17:41 10° NNW 19:21:25 29° WNW 19:25:09 10° SW
Cosmos 405 Rocket 3.2 19:18:12 10° S 19:21:05 49° S 19:21:05 49° S
SPOT 3 Rocket 4.1 19:18:25 10° S 19:23:33 60° WSW 19:28:43 10° NNW
Meteor 1-10 Rocket 4.4 19:18:12 10° SSW 19:23:46 70° W 19:29:29 10° N
Cosmos 841 Rocket 3.8 19:18:52 10° NNW 19:24:06 68° WSW 19:29:18 10° S
Cosmos 2221 Rocket 4.1 19:19:47 10° SSW 19:24:08 58° W 19:27:26 17° N
USA 234 4.4 19:21:06 16° NNE 19:25:41 36° NW 19:31:32 10° W
Cosmos 540 Rocket 3.7 19:21:31 10° N 19:25:38 50° NNE 19:25:38 50° NNE
NOAA 12 4.5 19:22:31 10° S 19:27:47 65° WSW 19:33:04 10° NNW
Atlas 2A Centaur Rocket 3.2 19:19:21 10° WSW 19:32:56 47° S 19:33:58 41° SSE
CZ-4C R/B 4.2 20:11:16 10° NNW 20:14:20 26° N 20:14:20 26° N
Cosmos 1833 Rocket 4.0 20:15:54 10° NNW 20:19:17 34° NW 20:19:17 34° NW
